Hourly Data Report for October 17, 2013

All times are specified in Local Standard Time (LST). Add 1 hour to adjust for Daylight Saving Time where and when it is observed.

QIKIQTARJUAQ A
NUNAVUT

67°32'48.000" N
64°01'54.000" W
5.50 m
2400577
YVM

Download Data

Hourly Data (October 2013)
Hourly Data Report for October 17, 2013
Temp Definition
°C
Dew Point Temp Definition
°C
Rel Hum Definition
%
Wind Dir Definition
10's deg

Wind Spd Definition
km/h
Visibility Definition
km
Stn Press Definition
kPa
Hmdx Definition


Wind Chill Definition


Weather Definition


TIME
00:00 Legend Double Dagger -0.9 -2.4 90   0 16.1 101.42     LegendNANA
01:00 Legend Double Dagger -0.5 -1.4 94 20 9 16.1 101.44   -4 LegendNANA
02:00 Legend Double Dagger -0.5 -1.6 92 5 8 16.1 101.48   -3 LegendNANA
03:00 Legend Double Dagger 0.0 -1.3 91   0 16.1 101.49     LegendNANA
04:00 Legend Double Dagger -0.1 -0.8 95 7 4 14.5 101.51   -1 LegendNANA
05:00 Legend Double Dagger 0.0 -0.4 97   0 16.1 101.52     LegendNANA
06:00 Legend Double Dagger -0.2 -0.5 98   0 2.0 101.52     LegendNANA
07:00 Legend Double Dagger -0.2 -0.3 99 20 8 6.4 101.51   -3 LegendNANA
08:00 Legend Double Dagger -0.4 -0.5 99 21 9 12.9 101.51   -4 LegendNANA
09:00 Legend Double Dagger -0.3 -0.7 97 21 13 16.1 101.49   -4 LegendNANA
10:00 Legend Double Dagger -0.3 -0.9 96 21 13 16.1 101.46   -4 LegendNANA
11:00 Legend Double Dagger -0.4 -2.2 88 22 13 16.1 101.44   -5 LegendNANA
12:00 Legend Double Dagger -0.3 -2.4 86 22 13 16.1 101.46   -4 LegendNANA
13:00 Legend Double Dagger -0.1 -2.5 84 21 11 16.1 101.48   -4 LegendNANA
14:00 Legend Double Dagger -0.3 -2.1 88 21 13 16.1 101.47   -4 LegendNANA
15:00 Legend Double Dagger -0.4 -2.5 86 20 11 16.1 101.47   -4 LegendNANA
16:00 Legend Double Dagger -0.4 -2.6 85 23 8 LegendMM 101.46   -3 LegendNANA
17:00 Legend Double Dagger -0.4 -2.8 84 22 5 16.1 101.46   -2 LegendNANA
18:00 Legend Double Dagger -0.5 -3.0 83 23 8 16.1 101.46   -3 LegendNANA
19:00 Legend Double Dagger -0.5 -2.9 84 LegendMM 4 16.1 101.46   -2 LegendNANA
20:00 Legend Double Dagger -0.6 -2.7 86 13 4 16.1 101.44   -2 LegendNANA
21:00 Legend Double Dagger -1.5 -2.8 91 10 4 16.1 101.44   -3 LegendNANA
22:00 Legend Double Dagger -1.6 -2.8 92   0 16.1 101.43     LegendNANA
23:00 Legend Double Dagger -1.0 -2.0 93   0 16.1 101.43     LegendNANA

Notes on Data Quality.

Legend

  • E = Estimated
  • M = Missing
  • NA = Not Available
  • ‡ = Partner data that is not subject to review by the National Climate Archives
Date modified: